This is the latest recevied weather packets stored in our database for station/object N8BAP. If no packets are shown the sender has not sent any weather packets the latest 10 day(s).
| Time | Temp. | Humidity | Pressure | Rain* | Wind** | Luminosity | Snow |
|---|---|---|---|---|---|---|---|
| 1788566460 | 22.78° C | 98% | 1019.9 hPa | 0 mm | - | 2 W/m² | - |
| 1788566154 | 22.78° C | 98% | 1019.6 hPa | 0 mm | - | 4 W/m² | - |
| 1788565854 | 22.78° C | 98% | 1019.7 hPa | 0 mm | - | 7 W/m² | - |
| 1788565549 | 23.33° C | 98% | 1019.3 hPa | 0 mm | - | 10 W/m² | - |
| 1788565245 | 23.33° C | 98% | 1019.7 hPa | 0 mm | - | 14 W/m² | - |
| 1788564939 | 23.33° C | 98% | 1019.5 hPa | 0 mm | - | 19 W/m² | - |
| 1788564636 | 23.33° C | 98% | 1019.4 hPa | 0 mm | - | 23 W/m² | - |
| 1788564332 | 23.33° C | 98% | 1019.2 hPa | 0 mm | - | 27 W/m² | - |
| 1788564029 | 23.33° C | 98% | 1019.3 hPa | 0 mm | - | 32 W/m² | - |
| 1788563724 | 22.78° C | 98% | 1019.3 hPa | 0 mm | - | 36 W/m² | - |
| 1788563419 | 22.78° C | 98% | 1019.3 hPa | 0 mm | - | 42 W/m² | - |
| 1788563118 | 22.78° C | 98% | 1019.4 hPa | 0 mm | - | 49 W/m² | - |
| 1788562814 | 22.22° C | 98% | 1019.6 hPa | 0 mm | - | 62 W/m² | - |
| 1788562511 | 22.22° C | 98% | 1019.4 hPa | 0 mm | - | 100 W/m² | - |
| 1788562210 | 22.22° C | 98% | 1019.2 hPa | 0 mm | - | 142 W/m² | - |
| 1788561906 | 21.67° C | 98% | 1019.6 hPa | 0 mm | - | 162 W/m² | - |
| 1788561606 | 21.11° C | 98% | 1019.3 hPa | 0 mm | - | 148 W/m² | - |
| 1788561305 | 20.56° C | 97% | 1019.2 hPa | 0 mm | - | 40 W/m² | - |
| 1788561001 | 20.56° C | 97% | 1019.1 hPa | 0 mm | - | 24 W/m² | - |
| 1788560696 | 20.56° C | 97% | 1019.5 hPa | 0 mm | - | 17 W/m² | - |
| 1788560391 | 20° C | 97% | 1018.6 hPa | 0 mm | - | 12 W/m² | - |
| 1788560085 | 20° C | 97% | 1018.8 hPa | 0 mm | - | 9 W/m² | - |
| 1788559781 | 20.56° C | 97% | 1018.6 hPa | 0 mm | - | 8 W/m² | - |
| 1788559480 | 20.56° C | 97% | 1019 hPa | 0 mm | - | 9 W/m² | - |
| 1788559175 | 21.11° C | 97% | 1019.9 hPa | 0 mm | - | 11 W/m² | - |
* Rain latest hour (hover to see other rain measurements)
** Current wind speed in m/s (hover to see current wind gust speed)